Regional Weather Roundup
Issued by NWS Cleveland, OH

Home | Current Version | Previous Version | Text Only | Print | Product List | Glossary Off
Versions: 1 2 3 4 5 6 7 8 9 10 11 12 13 14 15 16 17 18 19 20 21 22 23 24 25 26 27 28 29 30 31 32 33 34 35 36 37 38 39 40 41 42 43 44 45 46 47 48 49 50

037
ASUS41 KCLE 090102
RWRCLE
OHIO REGIONAL WEATHER ROUNDUP
NATIONAL WEATHER SERVICE CLEVELAND, OH
800 PM EST THU DEC 08 2016

NOTE: "FAIR" INDICATES FEW OR NO CLOUDS BELOW 12,000 FEET WITH NO
SIGNIFICANT WEATHER AND/OR OBSTRUCTIONS TO VISIBILITY.

OHZ001>008-015>018-024>027-034-035-043-044-090200-
   NORTHWEST OHIO

CITY           SKY/WX    TMP DP  RH WIND       PRES   REMARKS
DEFIANCE       FLURRIES  22  14  71 SW13G20   30.31S WCI  10
FINDLAY        FLURRIES  22  14  71 W17       30.30R WCI   8
TOLEDO EXPRESS MOCLDY    21  17  84 W21       30.27R WCI   5
TOLEDO EXEC    MOCLDY    23  17  78 W14       30.28R WCI  11
LIMA           LGT SNOW  20  16  84 W16       30.32S FOG     WCI   6
$$

OHZ009>014-019>023-028>033-038-089-090200-
   NORTHEAST OHIO

CITY           SKY/WX    TMP DP  RH WIND       PRES   REMARKS
CLE-HOPKINS    FLURRIES  26  15  63 W20       30.25R WCI  12
CLE-LAKEFRONT  FLURRIES  27  19  72 SW24G32   30.21R WCI  12
CUY CO. ARPT   LGT SNOW  27  21  80 W16       30.20R WCI  14
LORAIN-ELYRIA  FLURRIES  23  14  68 W18G28    30.25R WCI   9
ASHTABULA      LGT SNOW  24  21  88 SW14      30.15R FOG     WCI  12
AKRON-CANTON   LGT SNOW  23  14  68 W13G22    30.21R WCI  11
WOOSTER        CLOUDY    22  14  71 W21       30.24R WCI   6
MANSFIELD      FLURRIES  21  14  74 SW13      30.24R WCI   9
YOUNGSTOWN     FLURRIES  24  15  68 W17G24    30.17R WCI  11
$$

OHZ042-051>053-060>062-070>072-077>081-090200-
  SOUTHWEST OHIO

CITY           SKY/WX    TMP DP  RH WIND       PRES   REMARKS
CINC-COVINGTON FLURRIES  24  14  65 NW14      30.39S WCI  12
CINC-LUNKEN    CLOUDY    26  14  60 W13G22    30.43S WCI  15
HAMILTON       CLOUDY    25  16  68 W7        30.42R WCI  17
DAYTON         LGT SNOW  21  14  74 NW14G23   30.37R WCI   8
WRIGHT-PAT AFB NOT AVBL
DAYTON GENERAL FLURRIES  23  17  78 W12       30.36S WCI  12
WILMINGTON     CLOUDY    23  15  71 W18       30.35S WCI   9
$$

OHZ036-037-039>041-045>050-054>059-063>069-073>076-082>088-090200-
  CENTRAL AND SOUTHEAST OHIO

CITY           SKY/WX    TMP DP  RH WIND       PRES   REMARKS
COLUMBUS       FLURRIES  23  17  78 NW18      30.33S WCI   9
OSU AIRPORT    FLURRIES  22  14  71 W17G29    30.33R WCI   8
BOLTON FIELD   NOT AVBL
RICKENBACK AFB FLURRIES  24  19  82 W12       30.34S WCI  13
NEWARK         CLOUDY    25  16  68 W10       30.31S WCI  15
MARION         FLURRIES  21  14  74 W14       30.30R WCI   8
LANCASTER      FLURRIES  24  17  74 W9        30.33S WCI  14
ZANESVILLE     FLURRIES  25  14  63 W14G21    30.30S WCI  13
NEW PHILLY     NOT AVBL
$$




USA.gov is the U.S. government's official web portal to all federal, state and local government web resources and services.